Torna al catalogo

CZ-6A DEB

AttivoPO
NORAD 61491·DEBRIS·🇨🇳 China

Lanciato Aug 6, 2024 da Taiyuan Satellite Launch Center

Loading…

Prossimi Passaggi (prossime 24 ore)

TLE

AggiornatoSource: Space-Track

Epoca: Sep 14, 2026, 04:38 UTC

1 61491U 24140AAZ 26257.19342375  .00000295  00000-0  10094-3 0  9991
2 61491  88.6670 231.9478 0035278 327.0788  32.8212 14.33298166104974

Traccia CZ-6A DEB in tempo reale con AllMySat

Download on the App Store